Weather History for Wellsville, NY

Change the Weather History Date:

Sunday, January 20, 2013

  Actual Average (KBFD) Record (KBFD)
Temperature  
Mean Temperature 30 °F 21 °F  
Max Temperature 43 °F 29 °F 50 °F (2006)
Min Temperature 17 °F 14 °F -18 °F (1984)
Degree Days  
Heating Degree Days 35 38  
Month to date heating degree days 760  
Since 1 July heating degree days 3816  
Cooling Degree Days 0 0  
Month to date cooling degree days 0  
Year to date cooling degree days 0  
Moisture  
Dew Point 13 °F    
Average Humidity 59    
Maximum Humidity 74    
Minimum Humidity 42    
Precipitation  
Precipitation 0.00 in 0.10 in 1.04 in (1978)
Month to date precipitation 2.17  
Year to date precipitation 2.17  
Sea Level Pressure  
Sea Level Pressure 29.84 in    
Wind  
Wind Speed 22 mph (West)    
Max Wind Speed 34 mph    
Max Gust Speed 50 mph    
Visibility 8 miles    
Events Snow    
T = Trace of Precipitation, MM = Missing Value Source: NWS Daily Summary

Daily Weather History Graph

Daily Weather History Graph

Search for Another Location

Airport:

Trip Planner

Search our weather history database for the weather conditions in past years. The results will help you decide how hot, cold, wet, or windy it might be!

Date:

Astronomy

Jan. 20, 2013 Rise Set
Actual Time 7:34 AM EST 5:11 PM EST
Civil Twilight 7:04 AM EST 5:42 PM EST
Nautical Twilight 6:30 AM EST 6:16 PM EST
Astronomical Twilight 5:56 AM EST 6:49 PM EST
Moon 12:11 PM EST (1/20) 2:04 AM EST (1/20)
Length of Visible Light 10h 37m
Length of Day
9h 36m
Waxing Gibbous, 66% of the Moon is Illuminated
Jan 20
Waxing Gibbous
Jan 26
Full
Feb 3
Last Quarter
Feb 10
New
Feb 17
First Quarter

Hourly Weather History & Observations

Time (EST) Temp. Windchill Dew Point Humidity Pressure Visibility Wind Dir Wind Speed Gust Speed Precip Events Conditions
12:56 AM 43.0 °F 35.1 °F 21.0 °F 42% 29.67 in 10.0 mi SW 17.3 mph 32.2 mph N/A   Partly Cloudy
1:56 AM 42.1 °F 32.6 °F 21.9 °F 45% 29.64 in 10.0 mi WSW 23.0 mph 32.2 mph N/A   Mostly Cloudy
2:56 AM 42.1 °F 32.8 °F 23.0 °F 47% 29.60 in 10.0 mi SW 21.9 mph 32.2 mph N/A   Clear
3:56 AM 42.1 °F 31.9 °F 25.0 °F 51% 29.57 in 10.0 mi WSW 26.5 mph 38.0 mph N/A   Partly Cloudy
4:56 AM 42.1 °F 33.3 °F 26.1 °F 53% 29.55 in 10.0 mi SW 19.6 mph 38.0 mph N/A   Overcast
5:56 AM 42.1 °F 33.1 °F 26.1 °F 53% 29.54 in 10.0 mi WSW 20.7 mph 41.4 mph N/A   Overcast
6:56 AM 39.9 °F 31.4 °F 26.1 °F 58% 29.58 in 10.0 mi West 16.1 mph 27.6 mph N/A   Mostly Cloudy
7:56 AM 35.1 °F 21.4 °F 19.0 °F 52% 29.66 in 10.0 mi West 32.2 mph 44.9 mph 0.00 in   Overcast
8:56 AM 30.9 °F 16.4 °F 15.1 °F 52% 29.73 in 10.0 mi West 28.8 mph 41.4 mph 0.00 in   Partly Cloudy
9:56 AM 28.0 °F 11.3 °F 12.0 °F 51% 29.79 in 10.0 mi West 34.5 mph 44.9 mph N/A   Mostly Cloudy
10:56 AM 26.1 °F 9.8 °F 10.0 °F 51% 29.83 in 10.0 mi West 28.8 mph 46.0 mph 0.00 in   Mostly Cloudy
11:56 AM 24.1 °F 7.1 °F 8.1 °F 51% 29.85 in 10.0 mi West 28.8 mph 49.5 mph 0.00 in   Mostly Cloudy
12:56 PM 24.1 °F 9.4 °F 9.0 °F 53% 29.88 in 10.0 mi West 20.7 mph 38.0 mph 0.00 in Snow Light Snow
1:21 PM 21.2 °F 3.9 °F 12.2 °F 68% 29.83 in 1.8 mi WNW 26.5 mph 38.0 mph 0.00 in Snow Light Snow
1:27 PM 21.2 °F 3.3 °F 12.2 °F 68% 29.84 in 0.8 mi WNW 28.8 mph 39.1 mph 0.00 in Snow Light Snow
1:35 PM 21.2 °F 3.9 °F 12.2 °F 68% 29.84 in 1.0 mi West 26.5 mph 39.1 mph 0.00 in Snow Light Snow
1:41 PM 21.2 °F 4.2 °F 10.4 °F 63% 29.84 in 3.0 mi West 25.3 mph 40.3 mph 0.00 in Snow Light Snow
1:56 PM 21.9 °F 6.5 °F 9.0 °F 58% 29.91 in 10.0 mi WNW 20.7 mph 39.1 mph 0.00 in   Mostly Cloudy
2:10 PM 21.2 °F 3.5 °F 8.6 °F 58% 29.85 in 9.0 mi West 27.6 mph 38.0 mph 0.00 in Snow Light Snow
2:24 PM 21.2 °F 6.4 °F 6.8 °F 54% 29.87 in 10.0 mi West 18.4 mph 34.5 mph 0.00 in   Overcast
2:56 PM 19.9 °F 4.3 °F 7.0 °F 57% 29.95 in 9.0 mi WNW 19.6 mph 29.9 mph 0.00 in   Overcast
3:14 PM 19.4 °F 1.4 °F 8.6 °F 63% 29.89 in 7.0 mi WNW 26.5 mph 33.4 mph 0.00 in Snow Light Snow
3:56 PM 19.9 °F 5.2 °F 7.0 °F 57% 29.97 in 10.0 mi West 17.3 mph 29.9 mph 0.00 in   Overcast
4:19 PM 19.4 °F 3.2 °F 6.8 °F 58% 29.90 in 10.0 mi West 20.7 mph 29.9 mph N/A   Overcast
4:56 PM 19.0 °F 6.8 °F 7.0 °F 59% 29.99 in 9.0 mi West 11.5 mph 21.9 mph 0.00 in   Overcast
5:28 PM 17.6 °F 1.7 °F 6.8 °F 63% 29.92 in 8.0 mi West 18.4 mph 35.7 mph 0.00 in Snow Light Snow
5:56 PM 18.0 °F 0.6 °F 6.1 °F 60% 30.01 in 10.0 mi WNW 23.0 mph 40.3 mph 0.00 in   Overcast
6:56 PM 18.0 °F 3.1 °F 9.0 °F 68% 30.04 in 4.0 mi West 16.1 mph 24.2 mph 0.00 in Snow Light Snow
7:56 PM 18.0 °F 7.7 °F 10.0 °F 71% 30.04 in 4.0 mi West 8.1 mph 18.4 mph 0.00 in Snow Light Snow
8:56 PM 18.0 °F 1.7 °F 8.1 °F 65% 30.04 in 9.0 mi West 19.6 mph 26.5 mph 0.00 in Snow Light Snow
9:56 PM 17.1 °F 3.6 °F 9.0 °F 71% 30.06 in 9.0 mi West 12.7 mph 21.9 mph 0.00 in Snow Light Snow
10:56 PM 17.1 °F 5.0 °F 10.0 °F 74% 30.06 in 8.0 mi West 10.4 mph - 0.00 in Snow Light Snow
11:56 PM 17.1 °F 2.5 °F 10.0 °F 74% 30.05 in 2.0 mi WNW 15.0 mph 19.6 mph 0.00 in Snow Light Snow